LKNA Weather Reports


time (UTC)temp
C
wind
direction
speed
KPH
gust
KPH
rain 1hr
cm
rain 24hr
cm
rain mn
cm
humidity
%
barometer
mb
20260905194152 17 330 12.9 0.0 0.00 0.00 0.00 52 1022.0
20260905193505 17 330 12.9 0.0 0.00 0.00 0.00 52 1022.0
20260905193252 17 330 12.9 0.0 0.00 0.00 0.00 52 1022.0
20260905192753 18 270 14.5 0.0 0.00 0.00 0.00 52 1021.0
20260905192500 17 290 19.3 0.0 0.00 0.00 0.00 55
20260905192206 18 270 14.5 0.0 0.00 0.00 0.00 52 1021.0
20260905191652 18 270 14.5 0.0 0.00 0.00 0.00 52 1021.0
20260905182049 18 280 19.3 0.0 0.00 0.00 0.00 52
20260905181352 18 280 20.9 0.0 0.00 0.00 0.00 52 1020.0
20260905181152 18 280 20.9 0.0 0.00 0.00 0.00 52 1020.0
20260905180752 18 280 20.9 0.0 0.00 0.00 0.00 52 1020.0
20260905180355 18 280 20.9 0.0 0.00 0.00 0.00 52 1020.0
20260905180154 18 280 20.9 0.0 0.00 0.00 0.00 52 1020.0
20260905175452 20 270 27.4 0.0 0.00 0.00 0.00 45 1020.0
20260905175252 20 270 27.4 0.0 0.00 0.00 0.00 45 1020.0
20260905174752 20 270 27.4 0.0 0.00 0.00 0.00 45 1020.0
20260905174152 20 270 27.4 0.0 0.00 0.00 0.00 45 1020.0
20260905173506 20 270 27.4 0.0 0.00 0.00 0.00 45 1020.0
20260905172752 21 270 27.4 46.7 0.00 0.00 0.00 43 1020.0
20260905172206 21 270 27.4 46.7 0.00 0.00 0.00 43 1020.0
20260905172145 20 270 32.2 0.0 0.00 0.00 0.00 45
20260905171614 21 270 27.4 46.7 0.00 0.00 0.00 43 1020.0
20260905170607 21 270 27.4 46.7 0.00 0.00 0.00 43 1020.0
20260905170122 21 270 27.4 46.7 0.00 0.00 0.00 43 1020.0
20260905163853 21 270 33.8 0.0 0.00 0.00 0.00 40 1020.0
20260905163109 21 270 33.8 0.0 0.00 0.00 0.00 40 1020.0
20260905162951 22 280 41.8 61.2 0.00 0.00 0.00 37 1019.0
20260905162452 21 280 35.4 0.0 0.00 0.00 0.00 40
20260905162306 22 280 41.8 61.2 0.00 0.00 0.00 37 1019.0
20260905161653 22 280 41.8 61.2 0.00 0.00 0.00 37 1019.0
20260905161153 22 280 41.8 61.2 0.00 0.00 0.00 37 1019.0
20260905160852 22 280 41.8 61.2 0.00 0.00 0.00 37 1019.0
20260905160356 22 280 41.8 61.2 0.00 0.00 0.00 37 1019.0
20260905155203 22 270 35.4 53.1 0.00 0.00 0.00 37 1019.0
20260905154752 22 270 33.8 0.0 0.00 0.00 0.00 37 1019.0
20260905154613 22 270 33.8 0.0 0.00 0.00 0.00 37 1019.0
20260905154253 22 270 33.8 0.0 0.00 0.00 0.00 37 1019.0
20260905151946 21 280 38.6 0.0 0.00 0.00 0.00 40
20260905151903 22 280 40.2 0.0 0.00 0.00 0.00 37 1019.0
20260905151153 22 280 40.2 0.0 0.00 0.00 0.00 37 1019.0
20260905150651 22 280 40.2 0.0 0.00 0.00 0.00 37 1019.0
20260905145952 22 290 40.2 0.0 0.00 0.00 0.00 37 1019.0
20260905145652 22 290 40.2 0.0 0.00 0.00 0.00 37 1019.0
20260905145151 22 290 40.2 0.0 0.00 0.00 0.00 37 1019.0
20260905144252 22 290 40.2 0.0 0.00 0.00 0.00 37 1019.0
20260905143753 22 290 40.2 0.0 0.00 0.00 0.00 37 1019.0
20260905142159 22 290 41.8 59.5 0.00 0.00 0.00 37 1019.0
20260905141925 22 280 38.6 57.9 0.00 0.00 0.00 37
20260905140505 22 290 41.8 59.5 0.00 0.00 0.00 37 1019.0
20260905140157 22 290 41.8 59.5 0.00 0.00 0.00 37 1019.0
20260905135114 22 290 40.2 0.0 0.00 0.00 0.00 40 1019.0
20260905134652 22 290 40.2 0.0 0.00 0.00 0.00 40 1019.0
20260905134252 22 290 40.2 0.0 0.00 0.00 0.00 40 1019.0
20260905133853 22 290 40.2 0.0 0.00 0.00 0.00 40 1019.0
20260905133505 22 290 40.2 0.0 0.00 0.00 0.00 40 1019.0
20260905133152 22 290 40.2 0.0 0.00 0.00 0.00 40 1019.0
20260905132309 22 280 35.4 0.0 0.00 0.00 0.00 40
20260905132305 22 270 35.4 0.0 0.00 0.00 0.00 40 1020.0
20260905131651 22 270 35.4 0.0 0.00 0.00 0.00 40 1020.0
20260905131152 22 270 35.4 0.0 0.00 0.00 0.00 40 1020.0
20260905130752 22 270 35.4 0.0 0.00 0.00 0.00 40 1020.0
20260905130258 22 270 35.4 0.0 0.00 0.00 0.00 40 1020.0
20260905125652 22 280 35.4 53.1 0.00 0.00 0.00 37 1020.0
20260905125453 22 280 35.4 53.1 0.00 0.00 0.00 37 1020.0
20260905125253 22 280 35.4 53.1 0.00 0.00 0.00 37 1020.0
20260905124952 22 280 35.4 53.1 0.00 0.00 0.00 37 1020.0
20260905124613 21 280 37.0 0.0 0.00 0.00 0.00 43 1020.0
20260905124113 21 280 37.0 0.0 0.00 0.00 0.00 43 1020.0
20260905123653 21 280 37.0 0.0 0.00 0.00 0.00 43 1020.0
20260905123352 21 280 37.0 0.0 0.00 0.00 0.00 43 1020.0
20260905123152 21 280 37.0 0.0 0.00 0.00 0.00 43 1020.0
20260905122518 21 280 35.4 49.9 0.00 0.00 0.00 43 1020.0
20260905122206 21 290 29.0 0.0 0.00 0.00 0.00 46 1020.0
20260905122159 21 290 35.4 0.0 0.00 0.00 0.00 43
20260905121803 21 290 29.0 0.0 0.00 0.00 0.00 46 1020.0
20260905121152 21 290 29.0 0.0 0.00 0.00 0.00 46 1020.0
20260905120608 21 290 29.0 0.0 0.00 0.00 0.00 46 1020.0
20260905115900 21 270 29.0 0.0 0.00 0.00 0.00 46 1020.0
20260905114113 21 270 29.0 0.0 0.00 0.00 0.00 46 1020.0
20260905113111 21 270 29.0 0.0 0.00 0.00 0.00 46 1020.0
20260905112752 20 260 27.4 0.0 0.00 0.00 0.00 49 1020.0
20260905112306 20 260 27.4 0.0 0.00 0.00 0.00 49 1020.0
20260905112055 21 260 29.0 0.0 0.00 0.00 0.00 46
20260905111906 20 260 27.4 0.0 0.00 0.00 0.00 49 1020.0
20260905110120 20 260 27.4 0.0 0.00 0.00 0.00 49 1020.0
20260905105252 20 260 24.1 0.0 0.00 0.00 0.00 56 1020.0
20260905105114 20 260 24.1 0.0 0.00 0.00 0.00 56 1020.0
20260905104652 20 260 24.1 0.0 0.00 0.00 0.00 56 1020.0
20260905104352 20 260 24.1 0.0 0.00 0.00 0.00 56 1020.0
20260905103110 20 260 24.1 0.0 0.00 0.00 0.00 56 1020.0
20260905102852 18 270 24.1 0.0 0.00 0.00 0.00 59 1020.0
20260905102524 18 270 25.7 0.0 0.00 0.00 0.00 59
20260905102404 18 270 24.1 0.0 0.00 0.00 0.00 59 1020.0
20260905101952 18 270 24.1 0.0 0.00 0.00 0.00 59 1020.0
20260905101452 18 270 24.1 0.0 0.00 0.00 0.00 59 1020.0
20260905100852 18 270 24.1 0.0 0.00 0.00 0.00 59 1020.0
20260905100400 18 270 24.1 0.0 0.00 0.00 0.00 59 1020.0
20260905095252 17 260 20.9 0.0 0.00 0.00 0.00 67 1020.0
20260905094852 17 260 20.9 0.0 0.00 0.00 0.00 67 1020.0
20260905094252 17 260 20.9 0.0 0.00 0.00 0.00 67 1020.0
20260905093753 17 260 20.9 0.0 0.00 0.00 0.00 67 1020.0
20260905092452 17 230 19.3 0.0 0.00 0.00 0.00 72 1020.0
20260905092109 17 240 19.3 0.0 0.00 0.00 0.00 77
20260905092012 17 230 19.3 0.0 0.00 0.00 0.00 72 1020.0
20260905090853 17 230 19.3 0.0 0.00 0.00 0.00 72 1020.0
20260905090113 17 230 19.3 0.0 0.00 0.00 0.00 72 1020.0
20260905084252 15 260 12.9 0.0 0.00 0.00 0.00 82 1020.0
20260905083117 15 260 12.9 0.0 0.00 0.00 0.00 82 1020.0
20260905082110 15 270 14.5 0.0 0.00 0.00 0.00 82
20260905080120 15 260 12.9 0.0 0.00 0.00 0.00 82 1020.0
20260905073111 13 300 16.1 0.0 0.00 0.00 0.00 87 1019.0
20260905072410 13 270 14.5 0.0 0.00 0.00 0.00 87
20260905070120 13 230 14.5 0.0 0.00 0.00 0.00 87 1018.0
20260905063117 13 240 14.5 0.0 0.00 0.00 0.00 87 1019.0
20260905062110 13 290 22.5 0.0 0.00 0.00 0.00 82
20260905060114 13 290 22.5 0.0 0.00 0.00 0.00 82 1019.0
20260905053117 15 280 22.5 0.0 0.00 0.00 0.00 77 1019.0
20260905052109 15 280 19.3 0.0 0.00 0.00 0.00 82
20260905050113 15 280 19.3 0.0 0.00 0.00 0.00 82 1018.0
20260905043117 16 300 19.3 0.0 0.00 0.00 0.00 72 1018.0
20260905042525 16 300 22.5 0.0 0.00 0.00 0.00 67
20260905040119 16 310 19.3 0.0 0.00 0.00 0.00 77 1017.0
20260905033109 17 320 27.4 0.0 0.00 0.00 0.00 67 1016.0
20260905032110 17 310 25.7 0.0 0.00 0.00 0.00 67
20260905030606 17 310 25.7 0.0 0.00 0.00 0.00 67 1017.0
20260905030122 17 320 22.5 0.0 0.00 0.00 0.00 63 1017.0
20260905023117 17 320 22.5 0.0 0.00 0.00 0.00 63 1016.0
20260905022109 17 320 25.7 0.0 0.00 0.00 0.00 63
20260905020122 17 320 24.1 0.0 0.00 0.00 0.00 63 1016.0
20260905013111 20 330 32.2 0.0 0.00 0.00 0.00 64 1015.0
20260905012410 20 330 32.2 0.0 0.00 0.00 0.00 60
20260905010114 21 310 29.0 48.3 0.00 0.00 0.00 60 1015.0
20260905003116 22 240 14.5 0.0 0.00 0.00 0.00 49 1013.0
20260905002124 22 240 14.5 0.0 0.00 0.00 0.00 53
20260905000114 22 240 12.9 0.0 0.00 0.00 0.00 49 1013.0
20260904233117 22 240 9.7 0.0 0.00 0.00 0.00 53 1013.0
20260904232155 22 240 11.3 0.0 0.00 0.00 0.00 53
20260904230112 22 240 9.7 0.0 0.00 0.00 0.00 53 1013.0
20260904223116 22 230 9.7 0.0 0.00 0.00 0.00 49 1013.0
20260904222531 22 230 11.3 0.0 0.00 0.00 0.00 53
20260904220114 22 220 12.9 0.0 0.00 0.00 0.00 53 1013.0
20260904213116 22 220 12.9 0.0 0.00 0.00 0.00 53 1013.0
20260904212109 22 220 11.3 0.0 0.00 0.00 0.00 53
20260904210120 22 220 11.3 0.0 0.00 0.00 0.00 53 1013.0
20260904203118 22 220 9.7 0.0 0.00 0.00 0.00 46 1013.0
20260904202108 22 230 8.0 0.0 0.00 0.00 0.00 49
20260904200121 22 230 9.7 0.0 0.00 0.00 0.00 46 1013.0